Regional Weather Roundup
Issued by NWS

Home | Current Version | Previous Version | Graphics & Text | Print | Product List | Glossary On
Versions: 1 2 3 4 5 6 7 8 9 10 11 12 13 14 15 16 17 18 19 20 21 22 23 24 25 26 27 28 29 30 31 32 33 34 35 36 37 38 39 40 41 42 43 44 45 46 47 48 49 50
632
ASUS44 KJAN 212110
RWRMS

MISSISSIPPI HOURLY WEATHER ROUNDUP
NATIONAL WEATHER SERVICE JACKSON MS
400 PM CDT THU AUG 21 2014

NOTE: "FAIR: INDICATES FEW OR NO CLOUDS BELOW 12,000 FEET WITH NO
SIGNIFICANT WEATHER AND/OR OBSTRUCTIONS TO VISIBILITY.

MSZ001>002-007>008-010>013-018>021-025>028-034>036-212200-
NORTHWEST MISSISSIPPI

CITY           SKY/WX    TMP DP  RH WIND       PRES   REMARKS
CLARKSDALE     FAIR      93  77  59 CALM      30.06F HX 107
CLEVELAND      FAIR      93  75  56 SW6       30.05F HX 104
GREENWOOD      MOSUNNY   93  74  53 S8        30.06F HX 103
GREENVILLE     SUNNY     94  72  48 W7        30.05F HX 102
GRENADA        FAIR      91  72  52 W7        30.07F HX  98
OLIVE BRANCH   PTSUNNY   90  75  62 S12       30.07F HX 100
OXFORD         FAIR      91  72  52 W6        30.09F HX  98
TUNICA         CLEAR     91  72  52 S9        30.06F HX  98
$$

MSZ003>006-009-014>017-022>024-029>033-037>039-212200-
NORTHEAST MISSISSIPPI

CITY           SKY/WX    TMP DP  RH WIND       PRES   REMARKS
BELMONT        FAIR      89  75  63 W3        30.09F HX  99
COLUMBUS AFB   SUNNY     95  71  44 W5        30.06F HX 102
CORINTH        FAIR      91  72  52 VRB6      30.07S HX  98
GOLDN TRIANGLE PTSUNNY   99  72  41 NW7       30.07F HX 107
STARKVILLE     FAIR      95  68  41 N3        30.06F HX  99
TUPELO         SUNNY     94  71  47 VRB3      30.07F HX 101
$$

MSZ040-058-212200-
CENTRAL MISSISSIPPI

CITY           SKY/WX    TMP DP  RH WIND       PRES   REMARKS
JACKSON INTL   PTSUNNY   95  70  44 W5        30.07F HX 101
JACKSON HAWKNS LGT RAIN  93  72  50 NW5       30.08F HX 101
MERIDIAN KEY   MOSUNNY   93  69  45 N5        30.07F HX  98
MERIDIAN NAS   MOSUNNY   94  69  44 SW3       30.07F HX  99
RAYMOND        FAIR      95  90  84 W3        30.07F HX 139
VICKSBURG      MOSUNNY   90  74  59 SW3       30.06F HX  99
$$

MSZ059>079-212200-
SOUTH MISSISSIPPI

CITY           SKY/WX    TMP DP  RH WIND       PRES   REMARKS
BROOKHAVEN     FAIR      88  73  62 SW6       30.10F THUNDER HX  96
HATTIESBURG    MOSUNNY   94  69  44 MISG      30.07F HX  99
MCCOMB         PTSUNNY   90  71  53 W5        30.10S HX  96
NATCHEZ        MOSUNNY   90  75  62 NW7       30.10R HX 100
PINE BELT      MOSUNNY   95  70  43 SW3       30.09F HX 101
$$

MSZ080>082-212200-
COASTAL MISSISSIPPI

CITY           SKY/WX    TMP DP  RH WIND       PRES   REMARKS
BAY ST LOUIS   MOSUNNY  N/A N/A N/A S7        30.08F
BILOXI         MOSUNNY   92  73  54 S10       30.08F HX 100
PASCAGOULA     SUNNY     91  74  57 S8        30.07F HX 100
GULFPORT       MOSUNNY   92  72  51 VRB6      30.07F HX  99
$$



USA.gov is the U.S. government's official web portal to all federal, state and local government web resources and services.